TimeEDT,TemperatureF,Dew PointF,Humidity,Sea Level PressureIn,VisibilityMPH,Wind Direction,Wind SpeedMPH,Gust SpeedMPH,PrecipitationIn,Events,Conditions,WindDirDegrees,DateUTC
12:15 AM,64.4,62.6,94,29.90,5.0,SSW,9.2,-,N/A,,Overcast,210,2013-10-08 04:15:00
12:35 AM,60.8,57.2,88,29.92,9.0,NW,11.5,16.1,N/A,,Overcast,320,2013-10-08 04:35:00
12:55 AM,60.8,55.4,82,29.92,10.0,NNW,6.9,-,N/A,,Overcast,330,2013-10-08 04:55:00
1:15 AM,60.8,57.2,88,29.93,10.0,NW,3.5,-,N/A,,Overcast,310,2013-10-08 05:15:00
1:35 AM,60.8,57.2,88,29.94,10.0,NW,5.8,-,N/A,,Overcast,310,2013-10-08 05:35:00
1:55 AM,60.8,55.4,82,29.95,10.0,NW,9.2,-,N/A,,Overcast,310,2013-10-08 05:55:00
2:15 AM,60.8,55.4,82,29.96,10.0,NW,8.1,-,N/A,,Overcast,310,2013-10-08 06:15:00
2:35 AM,60.8,53.6,77,29.96,10.0,NW,9.2,16.1,N/A,,Overcast,310,2013-10-08 06:35:00
2:55 AM,60.8,53.6,77,29.96,10.0,NW,12.7,17.3,N/A,,Overcast,310,2013-10-08 06:55:00
3:15 AM,60.8,53.6,77,29.97,10.0,NW,11.5,18.4,N/A,,Overcast,310,2013-10-08 07:15:00
3:35 AM,60.8,53.6,77,29.98,10.0,WNW,10.4,16.1,N/A,,Overcast,300,2013-10-08 07:35:00
3:55 AM,60.8,51.8,72,29.99,10.0,WNW,13.8,20.7,N/A,,Overcast,300,2013-10-08 07:55:00
4:15 AM,60.8,51.8,72,30.00,10.0,WNW,12.7,17.3,N/A,,Overcast,300,2013-10-08 08:15:00
4:35 AM,59.0,50.0,72,30.01,10.0,WNW,12.7,-,N/A,,Mostly Cloudy,290,2013-10-08 08:35:00
4:55 AM,57.2,48.2,72,30.01,10.0,WNW,11.5,18.4,N/A,,Clear,300,2013-10-08 08:55:00
5:15 AM,57.2,48.2,72,30.02,10.0,WNW,16.1,19.6,N/A,,Clear,290,2013-10-08 09:15:00
5:35 AM,57.2,48.2,72,30.03,10.0,WNW,15.0,20.7,N/A,,Clear,300,2013-10-08 09:35:00
5:55 AM,57.2,48.2,72,30.04,10.0,WNW,15.0,21.9,N/A,,Clear,290,2013-10-08 09:55:00
6:15 AM,57.2,48.2,72,30.05,10.0,WNW,17.3,24.2,N/A,,Clear,300,2013-10-08 10:15:00
6:35 AM,57.2,48.2,72,30.06,10.0,WNW,15.0,20.7,N/A,,Clear,300,2013-10-08 10:35:00
6:55 AM,57.2,48.2,72,30.08,10.0,WNW,16.1,20.7,N/A,,Clear,300,2013-10-08 10:55:00
7:15 AM,57.2,48.2,72,30.09,10.0,NW,16.1,19.6,N/A,,Clear,310,2013-10-08 11:15:00
7:35 AM,57.2,48.2,72,30.10,10.0,NW,19.6,24.2,N/A,,Clear,310,2013-10-08 11:35:00
7:55 AM,57.2,48.2,72,30.11,10.0,NW,15.0,23.0,N/A,,Clear,310,2013-10-08 11:55:00
8:15 AM,57.2,48.2,72,30.13,10.0,NW,17.3,24.2,N/A,,Clear,320,2013-10-08 12:15:00
8:35 AM,59.0,48.2,67,30.14,10.0,NW,13.8,20.7,N/A,,Clear,320,2013-10-08 12:35:00
8:55 AM,60.8,48.2,63,30.15,10.0,NNW,15.0,19.6,N/A,,Clear,330,2013-10-08 12:55:00
9:15 AM,57.2,46.4,67,30.16,10.0,NNW,16.1,20.7,0.02,,Clear,330,2013-10-08 13:15:00
9:35 AM,59.0,46.4,63,30.16,10.0,NNW,15.0,23.0,0.02,,Clear,330,2013-10-08 13:35:00
9:55 AM,60.8,46.4,59,30.17,10.0,NNW,17.3,21.9,0.02,,Clear,330,2013-10-08 13:55:00
10:15 AM,60.8,48.2,63,30.18,10.0,NNW,13.8,20.7,N/A,,Clear,330,2013-10-08 14:15:00
10:35 AM,60.8,46.4,59,30.19,10.0,NNW,16.1,21.9,N/A,,Clear,330,2013-10-08 14:35:00
10:55 AM,60.8,46.4,59,30.19,10.0,NNW,12.7,-,N/A,,Clear,340,2013-10-08 14:55:00
11:15 AM,60.8,46.4,59,30.20,10.0,North,13.8,17.3,0.01,,Clear,350,2013-10-08 15:15:00
11:35 AM,60.8,46.4,59,30.20,10.0,North,16.1,-,0.01,,Clear,350,2013-10-08 15:35:00
11:55 AM,60.8,44.6,55,30.21,10.0,NNW,11.5,-,0.01,,Clear,340,2013-10-08 15:55:00
12:15 PM,60.8,46.4,59,30.20,10.0,NNW,11.5,-,N/A,,Clear,330,2013-10-08 16:15:00
12:35 PM,62.6,46.4,55,30.20,10.0,NNW,12.7,16.1,N/A,,Clear,330,2013-10-08 16:35:00
12:55 PM,62.6,44.6,52,30.20,10.0,North,11.5,-,N/A,,Clear,350,2013-10-08 16:55:00
1:15 PM,62.6,46.4,55,30.21,10.0,North,12.7,18.4,N/A,,Clear,350,2013-10-08 17:15:00
1:35 PM,62.6,46.4,55,30.21,10.0,North,11.5,16.1,N/A,,Clear,350,2013-10-08 17:35:00
1:55 PM,60.8,46.4,59,30.21,10.0,North,13.8,-,N/A,,Clear,350,2013-10-08 17:55:00
2:15 PM,60.8,46.4,59,30.21,10.0,North,11.5,-,N/A,,Clear,350,2013-10-08 18:15:00
2:35 PM,62.6,46.4,55,30.22,10.0,North,11.5,-,N/A,,Clear,10,2013-10-08 18:35:00
2:55 PM,62.6,46.4,55,30.22,10.0,North,11.5,-,N/A,,Clear,10,2013-10-08 18:55:00
3:15 PM,62.6,44.6,52,30.23,10.0,North,9.2,-,N/A,,Clear,10,2013-10-08 19:15:00
3:35 PM,60.8,44.6,55,30.23,10.0,North,10.4,-,N/A,,Clear,10,2013-10-08 19:35:00
3:55 PM,60.8,46.4,59,30.23,10.0,North,11.5,-,N/A,,Clear,10,2013-10-08 19:55:00
4:15 PM,60.8,44.6,55,30.23,10.0,North,9.2,-,N/A,,Clear,350,2013-10-08 20:15:00
4:35 PM,60.8,44.6,55,30.24,10.0,North,9.2,-,N/A,,Clear,360,2013-10-08 20:35:00
4:55 PM,60.8,44.6,55,30.25,10.0,NNE,6.9,-,N/A,,Clear,20,2013-10-08 20:55:00
5:15 PM,60.8,44.6,55,30.27,10.0,NNE,5.8,-,N/A,,Clear,20,2013-10-08 21:15:00
5:35 PM,59.0,44.6,59,30.27,10.0,NNE,5.8,-,N/A,,Clear,30,2013-10-08 21:35:00
5:55 PM,57.2,44.6,63,30.27,10.0,NNE,6.9,-,N/A,,Clear,20,2013-10-08 21:55:00
6:15 PM,57.2,44.6,63,30.28,10.0,NNE,9.2,-,N/A,,Clear,30,2013-10-08 22:15:00
6:35 PM,57.2,44.6,63,30.28,10.0,NNE,10.4,-,N/A,,Clear,30,2013-10-08 22:35:00
6:55 PM,57.2,44.6,63,30.28,10.0,NNE,8.1,-,N/A,,Clear,30,2013-10-08 22:55:00
7:15 PM,57.2,44.6,63,30.29,10.0,NNE,8.1,-,N/A,,Clear,30,2013-10-08 23:15:00
7:35 PM,57.2,44.6,63,30.30,10.0,NNE,9.2,-,N/A,,Clear,30,2013-10-08 23:35:00
7:55 PM,57.2,46.4,67,30.31,10.0,ENE,6.9,-,N/A,,Clear,60,2013-10-08 23:55:00
8:15 PM,55.4,46.4,72,30.31,10.0,NE,8.1,-,N/A,,Clear,40,2013-10-09 00:15:00
8:35 PM,57.2,46.4,67,30.32,10.0,NNE,10.4,-,N/A,,Clear,30,2013-10-09 00:35:00
8:55 PM,55.4,48.2,77,30.32,10.0,ENE,8.1,-,N/A,,Clear,60,2013-10-09 00:55:00
9:15 PM,55.4,46.4,72,30.33,10.0,NE,8.1,-,N/A,,Clear,50,2013-10-09 01:15:00
9:35 PM,55.4,48.2,77,30.34,10.0,ENE,8.1,-,N/A,,Clear,70,2013-10-09 01:35:00
9:55 PM,55.4,44.6,67,30.34,10.0,ENE,8.1,-,N/A,,Clear,60,2013-10-09 01:55:00
10:15 PM,55.4,44.6,67,30.35,10.0,ENE,8.1,-,N/A,,Clear,70,2013-10-09 02:15:00
10:35 PM,55.4,44.6,67,30.35,10.0,NE,10.4,-,N/A,,Clear,50,2013-10-09 02:35:00
10:55 PM,55.4,42.8,63,30.35,10.0,NE,10.4,-,N/A,,Clear,50,2013-10-09 02:55:00
11:15 PM,57.2,42.8,59,30.36,10.0,NE,13.8,-,N/A,,Clear,50,2013-10-09 03:15:00
11:35 PM,57.2,42.8,59,30.36,10.0,NE,13.8,-,N/A,,Clear,50,2013-10-09 03:35:00
11:55 PM,55.4,44.6,67,30.37,10.0,ENE,13.8,-,N/A,,Clear,60,2013-10-09 03:55:00